New Castle, PA

8:41 PM EDT on March 30, 2017 (GMT -0400)
New Castle Municipal

Weather History for KUCP - February, 2013

Change the Weather History Date:

Sunday, February 10, 2013

  Actual Average Record
Temperature  
Mean Temperature 30 °F -  
Max Temperature 46 °F 35 °F 70 °F (1937)
Min Temperature 15 °F 12 °F -12 °F (1934)
Degree Days  
Heating Degree Days 34    
Moisture  
Dew Point 16 °F    
Average Humidity 56    
Maximum Humidity 84    
Minimum Humidity 30    
Precipitation  
Precipitation 0.00 in - - ()
Sea Level Pressure  
Sea Level Pressure 30.24 in    
Wind  
Wind Speed 2 mph (SSE)    
Max Wind Speed 13 mph    
Max Gust Speed -    
Visibility 10 miles    
Events      
Averages and records for this station are not official NWS values.
T = Trace of Precipitation, MM = Missing Value Source: NWS Daily Summary

Daily Weather History Graph

Daily Weather History Graph

Search for Another Location

Airport or City:

Trip Planner

Search our weather history database for the weather conditions in past years. The results will help you decide how hot, cold, wet, or windy it might be!

Date:

Astronomy

Feb. 10, 2013 Rise Set
Actual Time 7:22 AM EST 5:50 PM EST
Civil Twilight 6:53 AM EST 6:18 PM EST
Nautical Twilight 6:21 AM EST 6:51 PM EST
Astronomical Twilight 5:49 AM EST 7:23 PM EST
Moon 7:10 AM EST (2/10) 6:40 PM EST (2/10)
Length of Visible Light 11h 25m
Length of Day
10h 28m
New Moon, 0% of the Moon is Illuminated
Feb 10
New Moon
Feb 17
First Quarter
Feb 25
Full
Mar 4
Last Quarter
Mar 11
New

Hourly Weather History & Observations

Time (EST) Temp. Windchill Dew Point Humidity Pressure Visibility Wind Dir Wind Speed Gust Speed Precip Events Conditions
12:56 AM 18.1 °F - 13.1 °F 81% 30.43 in 10.0 mi Calm Calm - N/A   Clear
1:56 AM 17.1 °F - 12.0 °F 81% 30.42 in 10.0 mi Calm Calm - N/A   Clear
2:56 AM 16.2 °F - 11.1 °F 81% 30.41 in 10.0 mi Calm Calm - N/A   Clear
3:56 AM 15.1 °F - 11.1 °F 84% 30.39 in 10.0 mi Calm Calm - N/A   Clear
4:56 AM 16.2 °F - 10.0 °F 77% 30.38 in 10.0 mi Calm Calm - N/A   Clear
5:56 AM 16.2 °F - 11.1 °F 81% 30.38 in 10.0 mi Calm Calm - N/A   Clear
6:56 AM 16.2 °F - 12.0 °F 84% 30.39 in 10.0 mi Calm Calm - N/A   Clear
7:56 AM 20.1 °F - 14.0 °F 77% 30.38 in 10.0 mi Calm Calm - N/A   Clear
8:56 AM 24.1 °F - 17.1 °F 75% 30.37 in 10.0 mi Calm Calm - N/A   Clear
10:56 AM 32.9 °F 24.7 °F 21.0 °F 62% 30.33 in 10.0 mi SW 10.4 mph - N/A   Clear
11:56 AM 37.9 °F 35.5 °F 16.2 °F 41% 30.30 in 10.0 mi Variable 3.5 mph - N/A   Scattered Clouds
12:56 PM 43.9 °F 41.3 °F 17.1 °F 34% 30.24 in 10.0 mi Variable 4.6 mph - N/A   Scattered Clouds
1:56 PM 45.9 °F 42.9 °F 18.1 °F 33% 30.19 in 10.0 mi SSE 5.8 mph - N/A   Mostly Cloudy
2:56 PM 46.9 °F - 17.1 °F 30% 30.19 in 10.0 mi South 5.8 mph - N/A   Overcast
3:56 PM 45.9 °F 42.9 °F 18.1 °F 33% 30.16 in 10.0 mi Variable 5.8 mph - N/A   Mostly Cloudy
4:56 PM 43.9 °F 42.3 °F 19.0 °F 37% 30.14 in 10.0 mi East 3.5 mph - N/A   Overcast
5:56 PM 43.0 °F 38.8 °F 18.1 °F 37% 30.12 in 10.0 mi ESE 6.9 mph - N/A   Overcast
6:56 PM 43.0 °F 39.5 °F 19.0 °F 38% 30.11 in 10.0 mi Variable 5.8 mph - N/A   Overcast
7:56 PM 41.9 °F 37.5 °F 20.1 °F 42% 30.09 in 10.0 mi Variable 6.9 mph - N/A   Overcast
8:56 PM 41.9 °F 35.0 °F 20.1 °F 42% 30.05 in 10.0 mi SE 12.7 mph - N/A   Clear
9:56 PM 41.9 °F 38.2 °F 20.1 °F 42% 30.04 in 10.0 mi Variable 5.8 mph - N/A   Overcast
10:56 PM 43.0 °F 38.8 °F 21.0 °F 42% 30.01 in 10.0 mi Variable 6.9 mph - N/A   Overcast
11:56 PM 43.0 °F 38.8 °F 22.1 °F 44% 29.98 in 10.0 mi SSE 6.9 mph - N/A   Overcast